EN

Hourly Weather Gogolewo

Today, 16 May, Sunday

Time Temperature Precipitation Wind Pressure Humidity
00:00 +10°C° 0.4 mm 3 mps 744 mmHg 91%
01:00 +10°C° 0 mm 3 mps 744 mmHg 91%
02:00 +10°C° 0.3 mm 3 mps 744 mmHg 93%
03:00 +10°C° 0.3 mm 3 mps 744 mmHg 94%
04:00 +10°C° 0.3 mm 3 mps 744 mmHg 95%
05:00 +11°C° 1.2 mm 3 mps 744 mmHg 95%
06:00 +11°C° 1.2 mm 3 mps 744 mmHg 94%
07:00 +11°C° 1.2 mm 3 mps 744 mmHg 94%
08:00 +12°C° 0.9 mm 3 mps 744 mmHg 88%
09:00 +13°C° 0.9 mm 3 mps 743 mmHg 82%
10:00 +14°C° 0.9 mm 3 mps 743 mmHg 76%
11:00 +14°C° 0.7 mm 3 mps 743 mmHg 75%
12:00 +16°C° 0.7 mm 3 mps 743 mmHg 74%
13:00 +16°C° 0.7 mm 2 mps 743 mmHg 73%
14:00 +16°C° 0.5 mm 2 mps 743 mmHg 73%
15:00 +16°C° 0.5 mm 2 mps 743 mmHg 73%
16:00 +16°C° 0.5 mm 2 mps 743 mmHg 73%
17:00 +15°C° 0.4 mm 2 mps 743 mmHg 77%
18:00 +14°C° 0.4 mm 2 mps 743 mmHg 81%
19:00 +13°C° 0.4 mm 1 mps 743 mmHg 85%
20:00 +12°C° 0.1 mm 2 mps 743 mmHg 87%
21:00 +10°C° 0.1 mm 2 mps 743 mmHg 90%
22:00 +9°C° 0.1 mm 2 mps 743 mmHg 93%
23:00 +9°C° 0 mm 2 mps 743 mmHg 93%

Tomorrow, 17 May, Monday

Time Temperature Precipitation Wind Pressure Humidity
00:00 +8°C° 0 mm 2 mps 743 mmHg 94%
01:00 +8°C° 0 mm 2 mps 743 mmHg 94%
02:00 +8°C° 0 mm 2 mps 743 mmHg 94%
03:00 +8°C° 0 mm 2 mps 743 mmHg 94%
04:00 +7°C° 0 mm 2 mps 743 mmHg 94%
05:00 +9°C° 0 mm 2 mps 743 mmHg 89%
06:00 +11°C° 0 mm 3 mps 743 mmHg 85%
07:00 +12°C° 0 mm 3 mps 744 mmHg 80%
08:00 +14°C° 0 mm 3 mps 744 mmHg 72%
09:00 +16°C° 0 mm 3 mps 744 mmHg 64%
10:00 +17°C° 0 mm 3 mps 744 mmHg 55%
11:00 +18°C° 0 mm 3 mps 744 mmHg 54%
12:00 +18°C° 0 mm 3 mps 744 mmHg 53%
13:00 +18°C° 0 mm 3 mps 744 mmHg 51%
14:00 +17°C° 0.1 mm 3 mps 744 mmHg 57%
15:00 +16°C° 0.1 mm 2 mps 744 mmHg 63%
16:00 +15°C° 0.1 mm 2 mps 744 mmHg 69%
17:00 +14°C° 0.3 mm 2 mps 744 mmHg 77%
18:00 +13°C° 0.3 mm 2 mps 745 mmHg 84%
19:00 +12°C° 0.3 mm 1 mps 745 mmHg 91%
20:00 +12°C° 0.2 mm 1 mps 745 mmHg 92%
21:00 +11°C° 0.2 mm 1 mps 745 mmHg 93%
22:00 +10°C° 0.2 mm 0 mps 744 mmHg 95%
23:00 +11°C° 0.6 mm 1 mps 744 mmHg 95%

Day after tomorrow, 18 May, Tuesday

Time Temperature Precipitation Wind Pressure Humidity
00:00 +11°C° 0.6 mm 1 mps 744 mmHg 95%
01:00 +11°C° 0.6 mm 1 mps 745 mmHg 96%
02:00 +11°C° 0.6 mm 1 mps 745 mmHg 96%
03:00 +11°C° 0.6 mm 1 mps 744 mmHg 96%
04:00 +11°C° 0.6 mm 1 mps 744 mmHg 96%
05:00 +11°C° 0.3 mm 1 mps 745 mmHg 95%
06:00 +11°C° 0.3 mm 1 mps 745 mmHg 94%
07:00 +11°C° 0.3 mm 1 mps 745 mmHg 93%
08:00 +12°C° 0.2 mm 1 mps 745 mmHg 90%
09:00 +12°C° 0.2 mm 2 mps 745 mmHg 88%
10:00 +13°C° 0.2 mm 2 mps 745 mmHg 86%
11:00 +13°C° 0.3 mm 2 mps 745 mmHg 84%
12:00 +12°C° 0.3 mm 3 mps 745 mmHg 83%
13:00 +13°C° 0.3 mm 3 mps 745 mmHg 82%
14:00 +13°C° 0.2 mm 3 mps 746 mmHg 81%
15:00 +13°C° 0.2 mm 4 mps 746 mmHg 79%
16:00 +13°C° 0.2 mm 4 mps 746 mmHg 78%
17:00 +12°C° 0 mm 4 mps 746 mmHg 80%
18:00 +11°C° 0 mm 4 mps 746 mmHg 83%
19:00 +10°C° 0 mm 3 mps 747 mmHg 85%
20:00 +9°C° 0 mm 3 mps 747 mmHg 88%
21:00 +8°C° 0 mm 3 mps 747 mmHg 91%
22:00 +7°C° 0 mm 3 mps 747 mmHg 93%
23:00 +7°C° 0 mm 3 mps 747 mmHg 94%

19 May, Wednesday

Time Temperature Precipitation Wind Pressure Humidity
00:00 +7°C° 0 mm 3 mps 747 mmHg 94%
01:00 +5°C° 0 mm 3 mps 748 mmHg 94%
02:00 +5°C° 0 mm 3 mps 748 mmHg 95%
03:00 +5°C° 0 mm 3 mps 748 mmHg 95%
04:00 +5°C° 0 mm 3 mps 748 mmHg 96%
05:00 +8°C° 0 mm 3 mps 748 mmHg 91%
06:00 +8°C° 0 mm 4 mps 749 mmHg 85%
07:00 +11°C° 0 mm 4 mps 749 mmHg 80%
08:00 +12°C° 0.1 mm 5 mps 749 mmHg 75%
09:00 +12°C° 0.1 mm 5 mps 749 mmHg 70%
10:00 +13°C° 0.1 mm 5 mps 750 mmHg 65%
11:00 +13°C° 0 mm 5 mps 750 mmHg 62%
12:00 +13°C° 0 mm 5 mps 750 mmHg 60%
13:00 +14°C° 0 mm 6 mps 750 mmHg 58%
14:00 +13°C° 0 mm 6 mps 750 mmHg 57%
15:00 +13°C° 0 mm 6 mps 750 mmHg 57%
16:00 +11°C° 0 mm 6 mps 750 mmHg 57%
17:00 +10°C° 0 mm 5 mps 750 mmHg 63%
18:00 +11°C° 0 mm 4 mps 750 mmHg 69%
19:00 +10°C° 0 mm 4 mps 750 mmHg 76%
20:00 +8°C° 0 mm 3 mps 750 mmHg 82%
21:00 +7°C° 0 mm 3 mps 750 mmHg 88%
22:00 +5°C° 0 mm 3 mps 751 mmHg 93%
23:00 +5°C° 0 mm 3 mps 750 mmHg 94%

20 May, Thursday

Time Temperature Precipitation Wind Pressure Humidity
00:00 +5°C° 0 mm 3 mps 750 mmHg 94%
01:00 +5°C° 0 mm 3 mps 750 mmHg 94%
02:00 +5°C° 0 mm 3 mps 750 mmHg 95%
03:00 +5°C° 0 mm 3 mps 751 mmHg 95%
04:00 +5°C° 0 mm 3 mps 751 mmHg 95%
05:00 +7°C° 0 mm 3 mps 751 mmHg 89%
06:00 +8°C° 0 mm 4 mps 751 mmHg 82%
07:00 +11°C° 0 mm 4 mps 751 mmHg 75%
08:00 +12°C° 0.1 mm 5 mps 751 mmHg 71%
09:00 +12°C° 0.1 mm 5 mps 751 mmHg 67%
10:00 +13°C° 0.1 mm 6 mps 751 mmHg 63%
11:00 +13°C° 0.2 mm 6 mps 751 mmHg 60%
12:00 +14°C° 0.2 mm 6 mps 751 mmHg 58%
13:00 +14°C° 0.2 mm 6 mps 751 mmHg 55%
14:00 +13°C° 0 mm 6 mps 751 mmHg 56%
15:00 +13°C° 0 mm 6 mps 751 mmHg 57%
16:00 +13°C° 0 mm 6 mps 751 mmHg 57%
17:00 +12°C° 0 mm 5 mps 751 mmHg 62%
18:00 +11°C° 0 mm 4 mps 751 mmHg 67%
19:00 +10°C° 0 mm 3 mps 751 mmHg 72%
20:00 +9°C° 0 mm 3 mps 751 mmHg 77%
21:00 +8°C° 0 mm 3 mps 751 mmHg 82%
22:00 +8°C° 0 mm 3 mps 751 mmHg 87%
23:00 +7°C° 0 mm 3 mps 751 mmHg 89%

21 May, Friday

Time Temperature Precipitation Wind Pressure Humidity
00:00 +6°C° 0 mm 4 mps 750 mmHg 91%
01:00 +5°C° 0 mm 4 mps 750 mmHg 93%
02:00 +5°C° 0 mm 4 mps 750 mmHg 92%
03:00 +4°C° 0 mm 4 mps 750 mmHg 91%
04:00 +4°C° 0 mm 4 mps 750 mmHg 90%
05:00 +5°C° 0 mm 5 mps 750 mmHg 82%
06:00 +7°C° 0 mm 5 mps 750 mmHg 75%
07:00 +8°C° 0 mm 5 mps 750 mmHg 68%
08:00 +9°C° 0 mm 5 mps 750 mmHg 63%
09:00 +11°C° 0 mm 6 mps 750 mmHg 57%
10:00 +13°C° 0 mm 6 mps 749 mmHg 52%
11:00 +13°C° 0 mm 6 mps 749 mmHg 53%
12:00 +14°C° 0 mm 5 mps 749 mmHg 53%
13:00 +14°C° 0 mm 5 mps 748 mmHg 54%
14:00 +14°C° 0.1 mm 5 mps 748 mmHg 61%
15:00 +13°C° 0.1 mm 4 mps 748 mmHg 68%
16:00 +12°C° 0.1 mm 3 mps 747 mmHg 75%
17:00 +12°C° 0.1 mm 3 mps 747 mmHg 77%
18:00 +12°C° 0.1 mm 3 mps 747 mmHg 79%
19:00 +12°C° 0.1 mm 2 mps 746 mmHg 81%
20:00 +12°C° 0 mm 2 mps 746 mmHg 82%
21:00 +11°C° 0 mm 3 mps 746 mmHg 84%
22:00 +11°C° 0 mm 3 mps 745 mmHg 85%
23:00 +11°C° 0 mm 4 mps 745 mmHg 82%
Show more